EXALTA-1

Last updated on Thu Nov 15 2018 00:02:07 GMT+0000 (Coordinated Universal Time)

1 42734U 98067MP 18318.24538221 .12474274 12505-4 35882-3 0 9995 2 42734 51.6055 286.4142 0002642 166.4742 193.6358 16.45390460 84235

Satellite not in orbit